[[{"header":{"parameterUnit":"m.s-1","parameterCategory":1,"la1":30.2991,"la2":30.254,"lo1":-89.0895,"lo2":-89.0444,"dy":0.0017,"dx":0.0017,"nx":28,"ny":28,"refTime":"2025-02-07T09:00:00:Z","depth":0,"parameterNumber":2,"parameterNumberName":"U-component_of_WINDS"},"data":[0,0,0,0,0,0,0,0,0,0,0,0,0,0,0,0,0,0,0,0,0,0,0,0,0,0,0,0,0,0,0,0,0,0,0,0,0,0,0,0,0,0,0,0,0,0,0,0,0,0,0,0,0,0,0,0,0,0,-1.7504,-1.7504,0,-1.7518,-1.7518,-1.7518,-1.7489,-1.7488,-1.7488,-1.7487,-1.7501,-1.7502,-1.7503,0,0,0,0,0,0,0,0,0,0,0,0,0,-1.745,-1.7451,-1.7504,-1.7504,-1.7504,-1.7518,-1.7518,-1.7518,-1.749,-1.7488,-1.7487,-1.7486,-1.75,-1.7502,-1.7503,0,0,0,0,0,0,0,0,0,0,0,0,0,-1.747,-1.7451,-1.7504,-1.7491,-1.749,-1.7518,-1.7518,-1.7518,-1.749,-1.7488,-1.7487,-1.7486,-1.75,-1.7502,-1.7503,-1.7543,0,0,-1.7509,-1.751,0,0,0,0,0,0,0,0,-1.7469,-1.7472,-1.7493,-1.7492,-1.7491,-1.75,-1.7504,-1.7527,-1.749,-1.749,-1.7487,-1.7485,-1.7502,-1.7503,-1.7509,-1.7544,-1.7545,-1.7509,-1.751,-1.7511,-1.7512,0,0,0,0,0,0,0,-1.7467,-1.7471,-1.7509,-1.7493,-1.7492,-1.7485,-1.7486,-1.7508,-1.7504,-1.749,-1.7488,-1.749,-1.7501,-1.7507,-1.7509,-1.7545,-1.7509,-1.7511,-1.7512,-1.7513,-1.7612,-1.7613,0,0,0,0,0,0,-1.7468,-1.747,-1.7509,-1.751,-1.7476,-1.7487,-1.7488,-1.7499,-1.7503,-1.7503,-1.7491,-1.7489,-1.7505,-1.7507,-1.751,-1.7555,-1.7511,-1.7513,-1.7514,-1.7611,-1.7612,-1.7614,0,0,0,0,0,0,-1.7467,-1.7471,-1.7508,-1.7489,-1.7493,-1.7489,-1.7501,-1.75,-1.7506,-1.7504,-1.7503,-1.7499,-1.7504,-1.7507,-1.7535,-1.7556,-1.7514,-1.7516,-1.7609,-1.7611,-1.7613,-1.7648,0,0,0,0,0,0,-1.7465,-1.7471,-1.7487,-1.749,-1.7495,-1.7534,-1.7503,-1.7501,-1.751,-1.7506,-1.7511,-1.751,-1.7503,-1.7532,-1.7537,-1.7557,-1.7517,-1.7607,-1.761,-1.7612,-1.7645,-1.7652,-1.7657,0,0,0,0,0,-1.7463,-1.7496,-1.7487,-1.7492,-1.7514,-1.7535,-1.7538,-1.7529,-1.7512,-1.7527,-1.7525,-1.751,-1.7553,-1.7535,-1.754,-1.7562,-1.7605,-1.7609,-1.7612,-1.7643,-1.765,-1.7657,0,0,0,0,0,0,-1.7495,-1.7496,-1.7487,-1.7521,-1.7528,-1.753,-1.7549,-1.7537,-1.7549,-1.7545,-1.7533,-1.7535,-1.7565,-1.7566,-1.7547,-1.76,-1.7576,-1.7581,-1.7598,-1.7605,-1.7611,-1.7609,-1.7519,0,0,0,0,0,-1.7506,-1.7524,-1.7524,-1.7554,-1.7558,-1.7553,-1.7562,-1.7554,-1.7561,-1.7564,-1.7564,-1.7571,-1.7586,-1.7596,-1.7609,-1.7646,-1.7646,-1.7663,-1.7669,-1.7674,-1.7677,-1.7695,-1.7703,-1.7625,-1.7625,-1.7625,0,0,-1.7529,-1.7532,-1.7543,-1.7561,-1.7565,-1.7583,-1.7556,-1.7576,-1.7589,-1.7567,-1.7593,-1.7594,-1.76,-1.7632,-1.7647,-1.7635,-1.7699,-1.7678,-1.7682,-1.7683,-1.77,-1.7707,-1.7714,-1.7627,-1.7627,-1.7627,0,0,-1.7579,-1.7584,-1.7609,-1.7614,-1.7621,-1.7618,-1.7624,-1.7627,-1.7627,-1.7653,-1.7637,-1.7652,-1.7678,-1.7683,-1.7689,-1.7742,-1.7728,-1.7746,-1.7776,-1.7794,-1.78,-1.7805,-1.7823,-1.7829,-1.775,-1.775,-1.775,0,-1.7607,-1.7633,-1.7624,-1.7645,-1.7652,-1.7634,-1.7659,-1.7664,-1.7675,-1.7681,-1.7667,-1.7699,-1.7702,-1.7735,-1.7748,-1.7754,-1.7759,-1.7745,-1.78,-1.7805,-1.781,-1.7826,-1.7833,-1.7753,-1.7752,-1.7752,-1.7752,0,-1.7666,-1.7684,-1.7704,-1.7715,-1.7725,-1.7748,-1.7742,-1.7753,-1.7745,-1.7743,-1.7769,-1.7772,-1.7786,-1.7793,-1.7786,-1.7825,-1.7817,-1.7802,-1.7778,-1.782,-1.7835,-1.7841,-1.7756,-1.7755,-1.7754,-1.7754,0,0,-1.7736,-1.7741,-1.7749,-1.7753,-1.776,-1.7773,-1.7796,-1.7809,-1.7818,-1.7827,-1.7844,-1.7867,-1.7853,-1.786,-1.7852,-1.7869,-1.7908,-1.7852,-1.7852,-1.7861,-1.795,-1.796,-1.7967,-1.79,-1.7901,-1.7902,-1.7949,0,-1.7785,-1.7823,-1.7815,-1.7852,-1.7868,-1.7851,-1.787,-1.7875,-1.7874,-1.7887,-1.7886,-1.7901,-1.7883,-1.7886,-1.7902,-1.79,-1.7926,-1.7897,-1.7915,-1.7915,-1.7912,-1.7975,-1.7986,-1.803,-1.7955,-1.7956,-1.7956,0,-1.7847,-1.7857,-1.7896,-1.7899,-1.7905,-1.7923,-1.7934,-1.7947,-1.7953,-1.7951,-1.7959,-1.7948,-1.7969,-1.7946,-1.7974,-1.7955,-1.7962,-1.7962,-1.7964,-1.7964,-1.7937,-1.7976,-1.8044,-1.805,-1.7966,-1.7965,-1.7965,0,-1.7892,-1.7916,-1.7942,-1.7946,-1.7951,-1.7963,-1.7966,-1.7971,-1.7979,-1.7989,-1.7994,-1.8006,-1.8012,-1.8022,-1.8015,-1.7999,-1.8044,-1.802,-1.8042,-1.8042,-1.8051,-1.805,-1.812,-1.8058,-1.8058,-1.8058,-1.8058,0,-1.7947,-1.7971,-1.7962,-1.7978,-1.8004,-1.7995,-1.8021,-1.8021,-1.8025,-1.804,-1.8027,-1.8041,-1.8032,-1.8045,-1.804,-1.8064,-1.8067,-1.8065,-1.8063,-1.8065,-1.8065,-1.8069,-1.8065,-1.806,-1.806,-1.8059,-1.8059,0,-1.8001,-1.7997,-1.8024,-1.8026,-1.8027,-1.8046,-1.8047,-1.8062,-1.8059,-1.8079,-1.8083,-1.8079,-1.8094,-1.8088,-1.8104,-1.8101,-1.8131,-1.8126,-1.8128,-1.8127,-1.8148,-1.8145,-1.8221,-1.823,-1.8164,-1.8164,-1.8165,0,-1.8036,-1.8054,-1.8058,-1.8067,-1.807,-1.8085,-1.8093,-1.8085,-1.8094,-1.8102,-1.8115,-1.8129,-1.814,-1.8165,-1.8163,-1.8175,-1.8169,-1.8195,-1.8171,-1.8172,-1.8168,-1.8166,-1.8167,-1.8199,-1.82,-1.8201,-1.8201,0,-1.8097,-1.8094,-1.8106,-1.8118,-1.8128,-1.8137,-1.8144,-1.8152,-1.8144,-1.8155,-1.8171,-1.8179,-1.8195,-1.8209,-1.822,-1.8222,-1.821,-1.8209,-1.8214,-1.8216,-1.8216,-1.8215,-1.814,-1.8207,-1.8206,-1.8206,-1.8206,-1.8205,-1.8141,-1.8156,-1.8161,-1.8175,-1.818,-1.8187,-1.82,-1.8199,-1.8212,-1.8224,-1.8219,-1.8236,-1.8241,-1.8255,-1.8258,-1.8271,-1.8261,-1.8269,-1.8271,-1.8273,-1.8275,-1.8216,-1.8274,-1.8273,-1.8273,-1.8273,-1.8273,0,-1.82,-1.8203,-1.8216,-1.8226,-1.8237,-1.8226,-1.8234,-1.8243,-1.8259,-1.8264,-1.8275,-1.8292,-1.8305,-1.8305,-1.8317,-1.8327,-1.8322,-1.8331,-1.8329,-1.8329,-1.8284,-1.8277,-1.8335,-1.8334,-1.8334,-1.8334,-1.8334,-1.8334,-1.8232,-1.8256,-1.8253,-1.8279,-1.8281,-1.8298,-1.8303,-1.8309,-1.8314,-1.8333,-1.8344,-1.8344,-1.8347,-1.8359,-1.837,-1.8369,-1.8374,-1.8384,-1.8381,-1.8339,-1.8333,-1.8327,-1.832,-1.8386,-1.8386,-1.8425,-1.8426,-1.8426]},{"header":{"parameterUnit":"m.s-1","parameterCategory":1,"la1":30.2991,"la2":30.254,"lo1":-89.0895,"lo2":-89.0444,"dy":0.0017,"dx":0.0017,"nx":28,"ny":28,"refTime":"2025-02-07T09:00:00:Z","depth":0,"parameterNumber":3,"parameterNumberName":"V-component_of_WINDS"},"data":[0,0,0,0,0,0,0,0,0,0,0,0,0,0,0,0,0,0,0,0,0,0,0,0,0,0,0,0,0,0,0,0,0,0,0,0,0,0,0,0,0,0,0,0,0,0,0,0,0,0,0,0,0,0,0,0,0,0,2.6926,2.6927,0,2.7007,2.7007,2.7008,2.7026,2.7025,2.7024,2.7024,2.7106,2.7109,2.7112,0,0,0,0,0,0,0,0,0,0,0,0,0,2.6789,2.6791,2.6926,2.6927,2.6928,2.7006,2.7008,2.7009,2.7026,2.7025,2.7024,2.7024,2.7106,2.7109,2.7112,0,0,0,0,0,0,0,0,0,0,0,0,0,2.6857,2.6792,2.6925,2.6946,2.6948,2.7006,2.7008,2.7009,2.7026,2.7025,2.7024,2.7023,2.7104,2.7108,2.7113,2.7156,0,0,2.7125,2.7127,0,0,0,0,0,0,0,0,2.6853,2.6862,2.6942,2.6944,2.6947,2.7005,2.6989,2.7058,2.7026,2.6996,2.7024,2.7023,2.7073,2.708,2.7097,2.716,2.7163,2.7126,2.7128,2.713,2.7131,0,0,0,0,0,0,0,2.6848,2.6858,2.6958,2.6943,2.6946,2.6952,2.696,2.7003,2.7039,2.6999,2.7,2.701,2.7075,2.7093,2.7099,2.7164,2.7125,2.7129,2.7132,2.7133,2.7271,2.7272,0,0,0,0,0,0,2.684,2.6854,2.6955,2.696,2.6897,2.6955,2.6964,2.6988,2.7039,2.7045,2.701,2.701,2.7087,2.7094,2.7102,2.7159,2.713,2.7134,2.7136,2.7269,2.7271,2.7272,0,0,0,0,0,0,2.6837,2.6848,2.6952,2.6908,2.6921,2.6958,2.6984,2.699,2.7008,2.7047,2.7054,2.7022,2.7086,2.7096,2.7143,2.7162,2.7136,2.7139,2.7268,2.727,2.7271,2.7271,0,0,0,0,0,0,2.6832,2.6847,2.6863,2.6908,2.6923,2.6991,2.6985,2.6992,2.7015,2.7016,2.706,2.7067,2.7086,2.7137,2.7147,2.7167,2.7142,2.7267,2.7269,2.7271,2.7269,2.7272,2.7275,0,0,0,0,0,2.6828,2.6859,2.6864,2.6876,2.6944,2.6992,2.7001,2.7023,2.7016,2.7034,2.706,2.7065,2.7158,2.7142,2.7153,2.7175,2.7265,2.7268,2.7271,2.7268,2.7272,2.7275,0,0,0,0,0,0,2.6815,2.6865,2.6871,2.6918,2.6951,2.6995,2.7017,2.7025,2.706,2.7059,2.7085,2.7095,2.7141,2.7162,2.7143,2.7221,2.7212,2.7217,2.7206,2.7209,2.7212,2.7207,2.7146,0,0,0,0,0,2.6817,2.6851,2.6894,2.6931,2.6947,2.6979,2.7001,2.7015,2.705,2.7064,2.7093,2.7127,2.7164,2.7188,2.7224,2.7273,2.7284,2.7293,2.7296,2.7298,2.7302,2.7333,2.7339,2.7281,2.7281,2.7281,0,0,2.6823,2.6855,2.6875,2.6929,2.6956,2.6992,2.6991,2.7028,2.7055,2.7069,2.7116,2.7139,2.7179,2.7228,2.725,2.7247,2.7321,2.7301,2.7303,2.7306,2.7336,2.7342,2.7347,2.7283,2.7282,2.7282,0,0,2.6852,2.6879,2.6914,2.6942,2.6984,2.7005,2.7014,2.7057,2.7073,2.7121,2.7133,2.7166,2.7229,2.7258,2.7281,2.7324,2.7332,2.7335,2.735,2.738,2.7384,2.7388,2.7406,2.7412,2.7339,2.7339,2.7339,0,2.6854,2.6908,2.6931,2.6969,2.6994,2.701,2.7047,2.7073,2.7124,2.7141,2.7136,2.7217,2.7245,2.7302,2.7313,2.733,2.7343,2.733,2.7381,2.7386,2.739,2.7408,2.7414,2.734,2.734,2.734,2.734,0,2.691,2.6947,2.6971,2.7022,2.7049,2.7086,2.7116,2.7141,2.7154,2.7177,2.7226,2.726,2.7305,2.732,2.7331,2.738,2.7377,2.7376,2.7367,2.7396,2.7413,2.7419,2.734,2.734,2.734,2.734,0,0,2.6932,2.6997,2.7005,2.703,2.7078,2.7108,2.7147,2.7191,2.7214,2.7249,2.7284,2.7338,2.7339,2.7365,2.738,2.7406,2.7442,2.7403,2.7405,2.7411,2.7501,2.7502,2.7509,2.7447,2.7449,2.745,2.7498,0,2.6968,2.7038,2.7062,2.7121,2.7157,2.7174,2.7209,2.7243,2.7266,2.7301,2.7326,2.7365,2.7362,2.7378,2.7404,2.7432,2.7461,2.7429,2.7481,2.7483,2.7472,2.7517,2.7518,2.7562,2.7505,2.7506,2.7506,0,2.702,2.7058,2.712,2.7167,2.7184,2.7214,2.7259,2.7291,2.7331,2.7346,2.7377,2.7391,2.7435,2.7423,2.7484,2.7462,2.7485,2.7502,2.7504,2.7511,2.7497,2.7527,2.7576,2.7584,2.7517,2.7516,2.7515,0,2.7033,2.7099,2.7146,2.7166,2.7221,2.7243,2.7267,2.7306,2.7332,2.7371,2.7389,2.7432,2.7456,2.749,2.7517,2.7505,2.7576,2.7566,2.7591,2.7591,2.7606,2.7605,2.7661,2.7618,2.7618,2.7618,2.7618,0,2.7072,2.711,2.7153,2.7182,2.7226,2.7254,2.7297,2.7322,2.7357,2.7393,2.7409,2.7442,2.7474,2.7512,2.7533,2.7582,2.7592,2.7606,2.7612,2.7606,2.7604,2.7622,2.7621,2.762,2.7619,2.7619,2.7619,0,2.7093,2.7123,2.7176,2.7225,2.7238,2.7269,2.7311,2.7341,2.7366,2.741,2.7422,2.7461,2.7506,2.7536,2.7593,2.7608,2.7662,2.7665,2.7649,2.7652,2.7676,2.7674,2.7747,2.7759,2.7706,2.7707,2.7707,0,2.7117,2.7147,2.72,2.7225,2.725,2.729,2.7318,2.7346,2.7375,2.7425,2.7449,2.7496,2.7535,2.7607,2.764,2.7685,2.7691,2.7714,2.7698,2.7692,2.7694,2.7693,2.7697,2.7717,2.7717,2.7717,2.7718,0,2.7157,2.7171,2.721,2.7256,2.7289,2.7326,2.7363,2.7383,2.7418,2.745,2.7497,2.7527,2.7588,2.7635,2.7683,2.7709,2.772,2.7722,2.7731,2.7726,2.7716,2.7724,2.7658,2.7721,2.772,2.772,2.772,2.772,2.7181,2.721,2.7253,2.7297,2.7329,2.7364,2.7395,2.7425,2.7465,2.7516,2.7531,2.7581,2.7623,2.769,2.7717,2.7757,2.7755,2.7767,2.777,2.7773,2.7775,2.7709,2.7766,2.7766,2.7766,2.7766,2.7766,0,2.7224,2.7253,2.7293,2.7346,2.7381,2.7389,2.7432,2.7461,2.7505,2.7544,2.7583,2.7639,2.7685,2.7723,2.7772,2.7797,2.7804,2.7809,2.7808,2.7815,2.7773,2.7762,2.7803,2.7803,2.7803,2.7803,2.7803,2.7803,2.725,2.7301,2.732,2.7388,2.7417,2.7466,2.749,2.7524,2.7555,2.7617,2.7656,2.7681,2.7721,2.7772,2.7816,2.7826,2.7844,2.7849,2.786,2.7821,2.7817,2.7813,2.7803,2.7852,2.7852,2.7899,2.79,2.79]}]]